Location: ????????
(55.5667°N, 37.5833°E)
Time: 08:03:15
(UTC+00:00)

Cosmos 2322 Rocket - Pass Details

Date: 14 April 2026
Orbit: 832 x 849 km, 71.0° (Epoch: 13 May)

Event Time Altitude Azimuth Distance (km) Brightness Sun altitude
Rises 18:02:19 0° 243° (WSW) 3,374 5.7 -11.9°
Reaches altitude 10° 18:04:55 10° 251° (WSW) 2,443 5.1 -12.2°
Maximum altitude 18:10:08 39° 319° (NW) 1,242 3.8 -12.8°
Drops below altitude 10° 18:15:23 10° 28° (NNE) 2,456 4.8 -13.3°
Sets 18:18:01 0° 36° (NE) 3,395 5.4 -13.6°
